Location: *
(46.1006°N, 1.8394°E)
Time: 11:42:56
(UTC+00:00)

Meteor 2-9 Rocket - Pass Details

Date: 20 September 2019
Orbit: 791 x 896 km, 81.3° (Epoch: 16 October)

Event Time Altitude Azimuth Distance (km) Brightness Sun altitude
Rises 18:35:44 0° 192° (SSW) 3,471 7.4 -7.9°
Reaches altitude 10° 18:38:12 10° 193° (SSW) 2,525 6.7 -8.3°
Maximum altitude 18:43:57 82° 280° (W) 877 4.4 -9.3°
Drops below altitude 10° 18:49:36 10° 9° (N) 2,475 6.7 -10.2°
Sets 18:51:59 0° 11° (N) 3,398 7.4 -10.6°
